Weather History for Darlington, SC

Change the Weather History Date:

Monday, October 8, 2012

  Actual Average (KFLO) Record (KFLO)
Temperature  
Mean Temperature 54 °F 67 °F  
Max Temperature 57 °F 78 °F 92 °F (1962)
Min Temperature 51 °F 56 °F 40 °F (1991)
Degree Days  
Heating Degree Days 11 2  
Month to date heating degree days 13  
Since 1 July heating degree days 22  
Cooling Degree Days 0 4  
Month to date cooling degree days 36  
Year to date cooling degree days 1992  
Growing Degree Days 4 (Base 50)    
Moisture  
Dew Point 49 °F    
Average Humidity 84    
Maximum Humidity 94    
Minimum Humidity 72    
Precipitation  
Precipitation 0.77 in 0.11 in 1.70 in (1959)
Month to date precipitation 0.92  
Year to date precipitation 35.07  
Sea Level Pressure  
Sea Level Pressure 30.14 in    
Wind  
Wind Speed 8 mph (NNE)    
Max Wind Speed 15 mph    
Max Gust Speed 18 mph    
Visibility 9 miles    
Events Thunderstorm    
T = Trace of Precipitation, MM = Missing Value Source: NWS Daily Summary

Daily Weather History Graph

Daily Weather History Graph

Search for Another Location

Airport:

Trip Planner

Search our weather history database for the weather conditions in past years. The results will help you decide how hot, cold, wet, or windy it might be!

Date:

Astronomy

Oct. 08, 2012 Rise Set
Actual Time 7:19 AM EDT 6:53 PM EDT
Civil Twilight 6:54 AM EDT 7:18 PM EDT
Nautical Twilight 6:25 AM EDT 7:47 PM EDT
Astronomical Twilight 5:56 AM EDT 8:16 PM EDT
Moon 12:14 AM EDT (10/8) 2:26 PM EDT (10/8)
Length of Visible Light 12h 24m
Length of Day
11h 33m
Waning Gibbous, 46% of the Moon is Illuminated
Oct 8
Waning Gibbous
Oct 15
New
Oct 21
First Quarter
Oct 29
Full
Nov 6
Last Quarter

Hourly Weather History & Observations

Time (EDT) Temp. Dew Point Humidity Pressure Visibility Wind Dir Wind Speed Gust Speed Precip Events Conditions
12:15 AM 55.4 °F 51.8 °F 88% 30.13 in 10.0 mi NNE 5.8 mph - N/A   Mostly Cloudy
12:35 AM 55.4 °F 51.8 °F 88% 30.13 in 10.0 mi NE 6.9 mph - N/A   Overcast
12:55 AM 55.4 °F 51.8 °F 88% 30.13 in 10.0 mi NNE 6.9 mph - N/A   Overcast
1:15 AM 55.4 °F 51.8 °F 88% 30.14 in 10.0 mi NNE 6.9 mph - N/A   Overcast
1:35 AM 55.4 °F 50.0 °F 82% 30.14 in 10.0 mi NNE 9.2 mph - N/A   Overcast
1:55 AM 55.4 °F 50.0 °F 82% 30.14 in 10.0 mi NNE 8.1 mph - N/A   Overcast
2:15 AM 55.4 °F 50.0 °F 82% 30.14 in 10.0 mi NNE 9.2 mph - N/A   Overcast
2:35 AM 55.4 °F 50.0 °F 82% 30.14 in 10.0 mi North 8.1 mph - N/A   Overcast
2:55 AM 55.4 °F 50.0 °F 82% 30.12 in 10.0 mi North 10.4 mph 16.1 mph N/A   Overcast
3:35 AM 55.4 °F 48.2 °F 77% 30.11 in 10.0 mi North 8.1 mph - N/A   Overcast
3:55 AM 55.4 °F 50.0 °F 82% 30.11 in 10.0 mi NNE 8.1 mph - N/A   Overcast
4:15 AM 55.4 °F 48.2 °F 77% 30.11 in 10.0 mi NNE 9.2 mph - N/A   Overcast
4:35 AM 55.4 °F 48.2 °F 77% 30.10 in 10.0 mi NNE 10.4 mph - N/A   Mostly Cloudy
4:55 AM 55.4 °F 48.2 °F 77% 30.11 in 10.0 mi NE 9.2 mph - N/A   Scattered Clouds
5:15 AM 55.4 °F 48.2 °F 77% 30.12 in 10.0 mi NE 8.1 mph - N/A   Overcast
5:35 AM 55.4 °F 48.2 °F 77% 30.12 in 10.0 mi NE 8.1 mph - N/A   Overcast
5:55 AM 55.4 °F 48.2 °F 77% 30.13 in 10.0 mi NE 8.1 mph - N/A   Overcast
6:15 AM 55.4 °F 48.2 °F 77% 30.13 in 10.0 mi NE 8.1 mph - N/A   Overcast
6:35 AM 55.4 °F 48.2 °F 77% 30.14 in 10.0 mi NNE 8.1 mph - N/A   Overcast
6:55 AM 55.4 °F 48.2 °F 77% 30.13 in 10.0 mi NE 9.2 mph - N/A   Overcast
7:15 AM 55.4 °F 48.2 °F 77% 30.15 in 10.0 mi NNE 10.4 mph - N/A   Overcast
7:35 AM 55.4 °F 48.2 °F 77% 30.17 in 10.0 mi NE 9.2 mph - N/A   Overcast
7:55 AM 55.4 °F 48.2 °F 77% 30.17 in 10.0 mi NE 8.1 mph - N/A   Overcast
8:15 AM 55.4 °F 48.2 °F 77% 30.17 in 10.0 mi NE 8.1 mph - N/A   Overcast
8:35 AM 55.4 °F 48.2 °F 77% 30.16 in 10.0 mi NE 10.4 mph - N/A   Overcast
8:55 AM 55.4 °F 48.2 °F 77% 30.16 in 10.0 mi ENE 9.2 mph - N/A   Overcast
9:15 AM 55.4 °F 48.2 °F 77% 30.17 in 10.0 mi NE 9.2 mph - N/A   Overcast
9:35 AM 55.4 °F 48.2 °F 77% 30.17 in 10.0 mi NE 10.4 mph - N/A   Overcast
9:55 AM 55.4 °F 48.2 °F 77% 30.16 in 10.0 mi NE 10.4 mph 18.4 mph N/A   Overcast
10:15 AM 55.4 °F 48.2 °F 77% 30.17 in 10.0 mi NE 9.2 mph 17.3 mph N/A   Overcast
10:35 AM 55.4 °F 48.2 °F 77% 30.17 in 10.0 mi NE 9.2 mph - N/A   Overcast
10:55 AM 57.2 °F 48.2 °F 72% 30.16 in 10.0 mi NE 8.1 mph - N/A   Overcast
11:15 AM 55.4 °F 48.2 °F 77% 30.16 in 10.0 mi NE 8.1 mph - N/A   Overcast
11:35 AM 55.4 °F 48.2 °F 77% 30.17 in 10.0 mi NNE 8.1 mph - N/A   Overcast
11:55 AM 55.4 °F 50.0 °F 82% 30.15 in 9.0 mi NNE 10.4 mph - N/A   Overcast
12:15 PM 53.6 °F 51.8 °F 94% 30.17 in 10.0 mi NE 9.2 mph - N/A   Overcast
12:35 PM 53.6 °F 51.8 °F 94% 30.16 in 1.2 mi NNE 8.1 mph - 0.28 in Thunderstorm Thunderstorm
12:55 PM 53.6 °F 50.0 °F 88% 30.16 in 3.0 mi North 8.1 mph - 0.44 in   Overcast
1:15 PM 53.6 °F 50.0 °F 88% 30.16 in 9.0 mi NNW 5.8 mph - 0.02 in   Overcast
1:35 PM 53.6 °F 51.8 °F 94% 30.15 in 8.0 mi NNE 10.4 mph - 0.07 in   Overcast
1:55 PM 53.6 °F 50.0 °F 88% 30.15 in 10.0 mi North 15.0 mph - 0.09 in   Overcast
2:15 PM 53.6 °F 50.0 °F 88% 30.14 in 5.0 mi NNE 10.4 mph 16.1 mph 0.05 in   Overcast
2:35 PM 53.6 °F 51.8 °F 94% 30.12 in 10.0 mi NNE 9.2 mph - 0.06 in   Overcast
2:55 PM 53.6 °F 51.8 °F 94% 30.11 in 10.0 mi NNE 11.5 mph 16.1 mph 0.06 in   Overcast
3:15 PM 53.6 °F 51.8 °F 94% 30.11 in 10.0 mi NE 10.4 mph 18.4 mph N/A   Overcast
3:35 PM 53.6 °F 51.8 °F 94% 30.12 in 7.0 mi North 8.1 mph - 0.04 in   Overcast
3:55 PM 51.8 °F 50.0 °F 94% 30.10 in 8.0 mi NNE 10.4 mph 16.1 mph 0.14 in   Overcast
4:15 PM 53.6 °F 50.0 °F 88% 30.10 in 10.0 mi NE 10.4 mph - N/A   Overcast
4:35 PM 51.8 °F 50.0 °F 94% 30.11 in 6.0 mi NNE 8.1 mph - 0.03 in   Overcast
4:55 PM 51.8 °F 50.0 °F 94% 30.11 in 10.0 mi NNE 10.4 mph - 0.04 in   Overcast
5:15 PM 51.8 °F 50.0 °F 94% 30.12 in 10.0 mi North 6.9 mph - N/A   Overcast
5:35 PM 51.8 °F 48.2 °F 88% 30.12 in 10.0 mi NNE 10.4 mph 16.1 mph N/A   Overcast
5:55 PM 53.6 °F 50.0 °F 88% 30.12 in 10.0 mi NNE 6.9 mph - N/A   Overcast
6:15 PM 51.8 °F 50.0 °F 94% 30.12 in 10.0 mi NNE 9.2 mph - N/A   Overcast
6:35 PM 53.6 °F 48.2 °F 82% 30.13 in 10.0 mi North 8.1 mph - N/A   Overcast
6:55 PM 51.8 °F 48.2 °F 88% 30.13 in 10.0 mi NNE 9.2 mph - N/A   Overcast
7:15 PM 51.8 °F 48.2 °F 88% 30.13 in 10.0 mi North 10.4 mph - N/A   Overcast
7:35 PM 51.8 °F 48.2 °F 88% 30.13 in 10.0 mi North 10.4 mph - N/A   Overcast
7:55 PM 51.8 °F 48.2 °F 88% 30.13 in 10.0 mi North 8.1 mph - N/A   Overcast
8:15 PM 51.8 °F 48.2 °F 88% 30.13 in 10.0 mi North 6.9 mph - N/A   Overcast
8:35 PM 51.8 °F 48.2 °F 88% 30.13 in 10.0 mi North 9.2 mph - N/A   Overcast
8:55 PM 51.8 °F 48.2 °F 88% 30.13 in 10.0 mi NNE 5.8 mph - N/A   Overcast
9:15 PM 51.8 °F 48.2 °F 88% 30.14 in 10.0 mi NNE 6.9 mph - N/A   Overcast
9:35 PM 51.8 °F 48.2 °F 88% 30.14 in 10.0 mi North 8.1 mph - N/A   Overcast
9:55 PM 51.8 °F 48.2 °F 88% 30.14 in 10.0 mi North 8.1 mph - N/A   Overcast
10:15 PM 51.8 °F 48.2 °F 88% 30.15 in 10.0 mi North 6.9 mph - N/A   Overcast
10:35 PM 51.8 °F 48.2 °F 88% 30.15 in 9.0 mi North 11.5 mph - N/A   Overcast
11:15 PM 51.8 °F 48.2 °F 88% 30.15 in 7.0 mi North 6.9 mph - N/A   Overcast
11:35 PM 51.8 °F 46.4 °F 82% 30.15 in 7.0 mi North 5.8 mph - N/A   Overcast
11:55 PM 51.8 °F 46.4 °F 82% 30.15 in 3.0 mi NNW 9.2 mph - N/A   Overcast